Showing default

DRISHTI, 69010

AKA "DRISHTI" on Space-Track | Orbit data source: Space-Track

DRISHTI, 69010 is an Indian payload satellite in SSO that was launched on Sun, 03 May 2026 UTC via an FALCON 9 launch vehicle from the Air Force Western Test Range (AFWTR). Payload-class satellites include a variety of spacecraft equipped with specific instruments for various scientific and technological missions. These include communications satellites like Starlink; space stations such as the ISS; scientific satellites like the Hubble; Earth observation satellites from companies like Planet Labs, Umbra, and HawkEye 360; GPS; miniature CubeSats for education and research; and military/defense satellites.

Loading next visibility...
Identifier
69010, 2026-100AG
Orbit
SSO
Country
Flag of ININ / IND
Related business
Manufacturer
GALEYE
Mission
Operational spacecraft
Bus & Motor
DRISHTI, Unknown motor
Mass
190 kg wet, 190 kg dry
Launch date (UTC)
2026-05-03 (2 months ago)
Launch vehicle
FALCON 9
Launch site
Air Force Western Test Range (AFWTR)
Object type
Payload
Rocket body
Debris
Shape & HBR
Unknown shape, 14.5 m
Radar Cross Section
Medium (>0.1 m² and <1 m²)

Expand to show TLE details & history
Last TLE update: 17 hours ago

TLE from 17 hours ago
0 DRISHTI
1 69010U 26100AG  26175.19646909  .00002303  00000-0  10857-3 0  9992
2 69010  97.4037  72.8948 0005741  22.9407 337.2084 15.20479329  7878
Epoch: 2026-06-24T04:42Z
TLE epoch observation values (Epoch: 2026-06-24T04:42:54.929Z)
Latitude
0.00001°
Longitude
89.80878°
Altitude
503.842 km
Speed
7.614 km/s
True Right ascension
04h 51m 34s
True Declination
0° 00' 00"
Sunlit
Object was in daylight at epoch
Visualization orbit readout
Latitude
Unknown
Longitude
Unknown
Altitude
Unknown
Speed
Unknown
Apparent Right ascension
Unknown
Apparent Declination
Unknown
Sunlit
N/A
Visualization observer readout
Local Sidereal Time
08:35:35
Azimuth
Unknown
Elevation
Unknown
Doppler factor
Unknown
Orbital elements
Apogee altitude
505.308 km
Perigee altitude
497.409 km
Semi-major axis
6,879.496 km
Eccentricity
0.00057
Inclination
97.4037°
RAAN
72.8948°
Arg. of periapsis
22.9407°
True anomaly
337.1829°
Mean anomaly
337.2084°
Eccentric anomaly
337.19565°
Mean motion
3.80372 °/min
Orbital period
94.64 mins
BSTAR
0.00010857
Loading maneuver chart data...
Computing Atmospheric mass density...
Loading historical data...
Loading historical data...
Loading historical data...
Loading historical data...
Loading historical data...
Loading historical data...
Loading historical data...

Documentation

Showing up to 5 results
|